Regional Weather Roundup
Issued by NWS

Home | Current Version | Previous Version | Graphics & Text | Print | Product List | Glossary On
Versions: 1 2 3 4 5 6 7 8 9 10 11 12 13 14 15 16 17 18 19 20 21 22 23 24 25 26 27 28 29 30 31 32 33 34 35 36 37 38 39 40 41 42 43 44 45 46 47 48 49 50
000
ASUS43 KMPX 021110
RWRMN
WEATHER ROUNDUP FOR MINNESOTA
NATIONAL WEATHER SERVICE TWIN CITIES/CHANHASSEN MN
500 AM CST MON MAR 02 2015


NOTE: "FAIR" INDICATES FEW OR NO CLOUDS BELOW 12,000 FEET WITH NO
SIGNIFICANT WEATHER AND/OR OBSTRUCTIONS TO VISIBILITY. N/A MEANS
CURRENT SKY AND/OR WEATHER CONDITIONS ARE NOT AVAILABLE.

MNZ060>063-068>070-021200-
   Twin Cities Metro

CITY           SKY/WX    TMP DP  RH WIND       PRES   REMARKS
TWIN CITIES    PTCLDY    12   6  77 W3        30.47R
ST PAUL        PTCLDY    13   7  77 SW3       30.48R
CRYSTAL        PTCLDY     9   5  84 W5        30.45R WCI   1
BLAINE         PTCLDY    10   7  85 CALM      30.45R
LAKEVILLE      PTCLDY     5   3  92 W2        30.45S
EDEN PRAIRIE   PTCLDY     9   5  84 NW3       30.45R
SOUTH ST PAUL  PTCLDY    11   6  79 CALM      30.47S
LAKE ELMO      FAIR       7   3  85 CALM      30.46R
$$
MNZ001>005-007-008-013>017-022>024-027-028-021200-
   Northwest Minnesota

CITY           SKY/WX    TMP DP  RH WIND       PRES   REMARKS
BEMIDJI        MOCLDY    -4  -7  86 CALM      30.32R
HALLOCK        PTCLDY    -6 -11  77 S9        30.31R WCI -22
ROSEAU         PTCLDY    -6  -9  84 S5        30.30R WCI -17
WARROAD        PTCLDY    -6  -9  84 SW5       30.30R WCI -17
THIEF RVR FALL PTCLDY    -2  -2 100 CALM      30.32S
CROOKSTON      PTCLDY    -2  -6  84 SE7       30.36S WCI -16
FOSSTON        MOCLDY    -8 -11  84 S5        30.33S WCI -19
DETROIT LAKES  MOCLDY     0  -4  85 CALM      30.36S
MOORHEAD       MOCLDY     1   0  92 S6        30.39F WCI -10
PARK RAPIDS    MOCLDY    -4 -10  75 CALM      30.34R
MAHNOMEN       FAIR      -4  -8  83 S9        30.35R WCI -20
$$
MNZ006-009>011-018-025>026-021200-
   North Central Minnesota

CITY           SKY/WX    TMP DP  RH WIND       PRES   REMARKS
BAUDETTE       PTCLDY    -5  -9  83 SE3       30.28R
FLAG ISLAND    PTCLDY     1   0  92 CALM      30.27S
INTL FALLS     PTCLDY   -11 -14  86 SW3       30.29S
WASKISH        MOCLDY     0  -2  92 CALM      30.31S
BIG FORK       PTCLDY    -2  -8  78 CALM      30.31S
LONGVILLE      FAIR      -8 -11  84 CALM      30.34F
GRAND RAPIDS   MOCLDY    -2  -6  84 CALM      30.31S
CRANE LAKE     CLEAR     -6  -8  92 CALM      30.33R
ORR            PTCLDY     0  -4  85 CALM      30.28R
COOK           PTCLDY     0  -2  92 CALM      30.31R
WALKER         FAIR       1  -2  87 SW5       30.33R WCI  -9
$$
MNZ012-019>021-037-021200-
   Northeast Minnesota

CITY           SKY/WX    TMP DP  RH WIND       PRES   REMARKS
DULUTH         PTCLDY     7   2  80 NW10      30.31S WCI  -8
ELY            CLEAR      3   1  92 SW5       30.29R WCI  -6
HIBBING        PTCLDY    -5  -9  83 CALM      30.31S
EVELETH        PTCLDY    -2  -8  78 CALM      30.32S
DULUTH HARBOR  PTCLDY    12   5  73 W13       30.41R WCI  -3
SILVER BAY     CLEAR      9   3  78 W5        30.30S WCI   0
GRAND MARAIS     N/A      9   2  73 VRB6      30.34R WCI  -1
G MARAIS ARPRT FLURRIES   3  -2  78 W6        30.23R WCI  -8
$$
MNZ029>031-032-039>041-046>048-054>057-064-021200-
   West Central Minnesota

CITY           SKY/WX    TMP DP  RH WIND       PRES   REMARKS
FERGUS FALLS   PTCLDY     3   0  85 SE3       30.43F
MORRIS         PTCLDY     1  -2  85 CALM      30.39F
ALEXANDRIA     PTCLDY     2  -1  88 S5        30.38S WCI  -8
ELBOW LAKE     FAIR       2  -1  87 SE5       30.39F WCI  -8
WADENA         MOCLDY     1   0  92 CALM      30.36F
APPLETON       PTCLDY     1  -2  85 SW6       30.44R WCI -10
BENSON         PTCLDY     5   1  85 CALM      30.41F
ORTONVILLE     PTCLDY     5   0  78 SW5       30.42R WCI  -4
MADISON        PTCLDY     3   0  85 SW6       30.45R WCI  -8
WILLMAR        FAIR       5   1  85 CALM      30.43F
$$
MNZ033>034-036-042>043-049>051-058-059-021200-
   Central Minnesota

CITY           SKY/WX    TMP DP  RH WIND       PRES   REMARKS
ST CLOUD       PTCLDY     5   2  87 S5        30.43R WCI  -4
SAUK CENTRE    FAIR       4   1  88 CALM      30.41S
PAYNESVILLE    MOCLDY     2   1  94 CALM      30.42F
PINE RIVER     MOCLDY    -8  -9  92 CALM      30.39R
BRAINERD       MOCLDY    -3  -6  87 CALM      30.38R
STAPLES        PTCLDY     1   0  92 CALM      30.37S
LONG PRAIRIE   FAIR       3   0  85 S5        30.40R WCI  -6
LITTLE FALLS   MOCLDY    -2  -6  84 CALM      30.41S
LITCHFIELD     MOCLDY     7   5  92 CALM      30.43F
BUFFALO        PTCLDY     7   3  85 CALM      30.46R
MAPLE LAKE     PTCLDY     8   6  92 CALM      30.44F
$$
MNZ037-044-045-052-053-021200-
   East Central Minnesota

CITY           SKY/WX    TMP DP  RH WIND       PRES   REMARKS
PRINCETON      PTCLDY     1  -2  85 CALM      30.43R
MORA           PTCLDY    -2  -6  84 CALM      30.43R
CAMBRIDGE      FAIR       1  -6  71 CALM      30.43R
RUSH CITY      PTCLDY    -1  -4  85 SW3       30.43R
MOOSE LAKE     PTCLDY     1  -2  85 CALM      30.36S
HINCKLEY       FAIR       1   0  92 CALM      30.41R
CLOQUET        PTCLDY     5   1  85 W6        30.34R WCI  -6
MCGREGOR       PTCLDY     5   3  92 CALM      30.36S
$$
MNZ071>073-080-081-089-090-097-098-021200-
   Southwest Minnesota

CITY           SKY/WX    TMP DP  RH WIND       PRES   REMARKS
MONTEVIDEO     PTCLDY     5   1  85 W6        30.46R WCI  -6
GRANITE FALLS  MOCLDY     3  -1  85 SW3       30.47R
CANBY          MOCLDY     7   2  82 SW7       30.45R WCI  -5
MARSHALL       PTCLDY     7   1  78 SW7       30.45S WCI  -5
REDWOOD FALLS  MOCLDY     8   4  83 W5        30.45F WCI   0
OLIVIA         MOCLDY     3   1  92 CALM      30.44F
PIPESTONE      PTCLDY     7   3  85 CALM      30.40S FOG
WINDOM         PTCLDY     1   0  92 CALM      30.44S
WORTHINGTON    PTCLDY     7   1  78 CALM      30.44F
JACKSON        PTCLDY     3   0  85 CALM      30.44S
TRACY          PTCLDY     8   4  82 SW6       30.44S WCI  -2
SLAYTON        CLEAR      4   0  85 CALM      30.42F
$$
MNZ065>067-074>077-082>085-091>093-021200-
   South Central Minnesota

CITY           SKY/WX    TMP DP  RH WIND       PRES   REMARKS
MANKATO        FAIR       9   3  78 W3        30.46R
NEW ULM        PTCLDY     3   0  85 CALM      30.46S
ST JAMES       PTCLDY     7   3  85 CALM      30.47S
FAIRMONT       PTCLDY     7   1  78 CALM      30.44S
GLENCOE        PTCLDY     6   4  90 CALM      30.45R
FARIBAULT      MOCLDY     7   3  85 CALM      30.45R
OWATONNA       MOCLDY     7   3  85 CALM      30.44R
WASECA         PTCLDY     0  -4  85 CALM      30.48R
ALBERT LEA     CLEAR      9   7  92 CALM      30.44S
$$
MNZ078>079-086>088-094>096-021200-
   Southeast Minnesota

CITY           SKY/WX    TMP DP  RH WIND       PRES   REMARKS
ROCHESTER      PTCLDY     5   3  91 NW10      30.42R WCI -10
RED WING       CLEAR      9   1  72 CALM      30.47R
STANTON        FAIR       8   5  85 CALM      30.45R
DODGE CENTER   PTCLDY    10   7  85 NW8       30.41R WCI  -1
WINONA         CLEAR     12   9  85 NW5       30.46R WCI   4
AUSTIN         PTCLDY     9   7  92 NW6       30.44R WCI  -1
PRESTON        PTCLDY     9   5  86 NW8       30.42R WCI  -4
$$
ABBREVIATIONS USED IN REMARKS
   TC - TEMPERATURES IN CELSIUS
  WCI - WIND CHILL INDEX
   HX - HEAT INDEX
  VSB - VISIBILITY
$$


USA.gov is the U.S. government's official web portal to all federal, state and local government web resources and services.